User: anonymous   Login
Location: Natural Bridges National Monument
(37.6093°N, 109.9767°W)
Time: 05:37:36
(UTC-06:00)
Language:

USA 32 - Orbit

View from above orbital plane
View from above orbital plane
View from above satellite
View from above satellite

Ground track
Ground track

The orbit data is extracted from the following two-line orbital elements,

1 19460U 88078A   16178.91055452 0.00000060  00000-0  21791-4 0    08
2 19460  84.9833  68.2390 0004000 291.8082  68.1916 14.33381179    00
Epoch (UTC): 26 June 2016 21:51:11
Eccentricity: 0.0004000
inclination: 84.9833°
perigee height: 777 km
apogee height: 783 km
right ascension of ascending node: 68.2390°
argument of perigee: 291.8082°
revolutions per day: 14.33381179
mean anomaly at epoch: 68.1916°
orbit number at epoch: 0

The dashed part of the orbit path shows where the satellite is in the earth's shadow,  

DLR